Regional Weather Roundup
Issued by NWS Jackson, KY

Home | Current Version | Previous Version | Graphics & Text | Print | Product List | Glossary On
Versions: 1 2 3 4 5 6 7 8 9 10 11 12 13 14 15 16 17 18 19 20 21 22 23 24 25 26 27 28 29 30 31 32 33 34 35 36 37 38 39 40 41 42 43 44 45 46 47 48 49 50
000
ASUS43 KJKL 052110
RWRJKL

EAST KENTUCKY HOURLY WEATHER ROUNDUP
NATIONAL WEATHER SERVICE JACKSON KY
400 PM EST THU MAR 05 2015

NOTE: "FAIR" INDICATES FEW OR NO CLOUDS BELOW 12,000 FEET WITH
NO SIGNIFICANT WEATHER AND/OR OBSTRUCTIONS TO VISIBILITY.

* THESE REPORTS ARE NOT UNDER NWS QUALITY CONTROL AND MAY NOT
  REPORT WEATHER SUCH AS PRECIPITATION AND FOG.

KYZ079-080-083-085-087-088-110-112-115-119-120-052200
...EASTERN KENTUCKY...

CITY           SKY/WX    TMP DP  RH WIND       PRES   REMARKS
JACKSON        LGT SNOW  19  14  81 VRB5      30.34R WCI  12
LONDON         MIX PCPN  20  13  74 N12       30.34R WCI   8
SOMERSET*      CLOUDY    19  14  79 N8        30.41R WCI   9
MONTICELLO*    FLURRIES  21  16  81 N8        30.42R WCI  11
MIDDLESBORO*   LGT SNOW  26  21  82 N5        30.30R WCI  20
HAZARD APT*    MIX PCPN  23  19  86 NW8       30.34R WCI  14
BLACK MTN*       N/A     14  14 100 N6          N/A  WCI   5
PIKEVILLE APT* LGT SNOW  19  18  93 NW9       30.30R WCI   9
BIG SANDY*     LGT SNOW  22  18  86 N6        30.32R WCI  14
MOREHEAD APT*  MOCLDY    19  12  73 NW7       30.39R WCI  10
$$

KYZ035-036-041-042-044-050-067-078-099-052200
...CENTRAL KENTUCKY...

CITY           SKY/WX    TMP DP  RH WIND       PRES   REMARKS
MT STERLING*   CLOUDY    21  12  68 N9G17     30.40R WCI  11
FLEMING/MASON* CLOUDY    21  10  63 NW6       30.40R WCI  14
DANVILLE*      CLOUDY    21  16  79 N8        30.41R WCI  12
RICHMOND*      CLOUDY    19  12  73 N8        30.39R WCI   9
LEXINGTON      FLURRIES  22  12  65 NW10      30.40R WCI  11
FRANKFORT      PTSUNNY   24  12  60 VRB7      30.40R WCI  16
$$

KYZ091>093-OHZ055-061-077-WVZ005-015-034-035-042-052200
...SOUTHERN OHIO/WEST VIRGINIA...

CITY           SKY/WX    TMP DP  RH WIND       PRES   REMARKS
COVINGTON      MOSUNNY   24   8  50 N15       30.39R WCI  11
COLUMBUS       CLOUDY    20   5  52 NW17      30.37R WCI   5
DAYTON         MOSUNNY   21   6  52 N17       30.40R WCI   7
WILMINGTON     SUNNY     21   5  50 N15       30.36R WCI   8
HUNTINGTON     LGT SNOW  19  16  88 NW6       30.35R FOG     WCI  11
CHARLESTON     LGT SNOW  21  15  78 NW7       30.32R WCI  12
PINEVILLE*     LGT SNOW  26  23  89 MISG      30.26R
BECKLEY        SNOW      20  16  84 N9        30.16R VSB 1/2 WCI   9
BLUEFIELD      CLOUDY    24  18  77 N8        30.13R HAZE    WCI  15
$$

VAZ002-007-008-TNZ017-027-036-066-071-052200
...SOUTHWEST VIRGINIA/EAST TENNESSEE...

CITY           SKY/WX    TMP DP  RH WIND       PRES   REMARKS
WISE*          LGT SNOW  21  21 100 NW9       30.19R WCI  11
JONESVILLE*    MIX PCPN  25  19  80 NW6       30.30R WCI  18
ABINGDON*      MIX PCPN  28  26  91 N6        30.17R WCI  21
BRISTOL        LGT RAIN  28  26  92 NW6       30.23R FOG     WCI  22
KNOXVILLE      FRZ RAIN  28  25  88 NE9       30.29R WCI  19
OAK RIDGE      CLOUDY    30  23  75 N5        30.31R WCI  25
CROSSVILLE     CLOUDY    22  18  85 NW13G22   30.28R WCI  10
NASHVILLE      PTSUNNY   27  18  69 N15       30.44R WCI  15
$$

...KEY TO REMARKS...
VSB - VISIBILITY IN MILES
WCI - WIND CHILL INDEX
HX  - HEAT INDEX

$$


USA.gov is the U.S. government's official web portal to all federal, state and local government web resources and services.